contact:dominique.lefevre@mio.osupytheas.fr, maurice.libes@osupytheas.fr, didier.mallarino@osupytheas.fr
Project:EMSO http://www.emso-fr.org/EMSO-France
Depth: 2436.0 m
Title:EMSO Ligure Ouest : Data MII capteur MICROCAT
DateTime_Computer,Latitude,Longitude,Temperature,Conductivity,Pressure,DateTime_Instrument
DateTime_Computer,Latitude,Longitude,degC,S m-1,dbar,DateTime_Instrument
2021-11-14T00:01:59Z,42.805,6.029,13.2993,4.60016,2470.32,2021-11-14T02:03:25Z
2021-11-14T00:05:02Z,42.805,6.029,13.2990,4.60013,2470.334,2021-11-14T02:06:28Z
2021-11-14T00:08:05Z,42.805,6.029,13.2994,4.60020,2470.334,2021-11-14T02:09:31Z
2021-11-14T00:11:08Z,42.805,6.029,13.2984,4.60014,2470.343,2021-11-14T02:12:34Z
2021-11-14T00:14:11Z,42.805,6.029,13.2993,4.60013,2470.32,2021-11-14T02:15:37Z
2021-11-14T00:17:14Z,42.805,6.029,13.2990,4.60016,2470.334,2021-11-14T02:18:40Z
2021-11-14T00:20:18Z,42.805,6.029,13.2993,4.60014,2470.31,2021-11-14T02:21:43Z
2021-11-14T00:23:21Z,42.805,6.029,13.2993,4.60015,2470.32,2021-11-14T02:24:47Z
2021-11-14T00:26:24Z,42.805,6.029,13.2993,4.60013,2470.32,2021-11-14T02:27:50Z
2021-11-14T00:29:27Z,42.805,6.029,13.2990,4.60014,2470.31,2021-11-14T02:30:53Z
2021-11-14T00:32:30Z,42.805,6.029,13.2994,4.60016,2470.334,2021-11-14T02:33:56Z
2021-11-14T00:35:33Z,42.805,6.029,13.2993,4.60011,2470.287,2021-11-14T02:36:59Z
2021-11-14T00:38:36Z,42.805,6.029,13.2990,4.60014,2470.334,2021-11-14T02:40:02Z
2021-11-14T00:41:39Z,42.805,6.029,13.2993,4.60020,2470.297,2021-11-14T02:43:05Z
2021-11-14T00:44:43Z,42.805,6.029,13.2991,4.60019,2470.334,2021-11-14T02:46:08Z
2021-11-14T00:47:46Z,42.805,6.029,13.2993,4.60016,2470.31,2021-11-14T02:49:12Z
2021-11-14T00:50:49Z,42.805,6.029,13.2995,4.60015,2470.343,2021-11-14T02:52:15Z
2021-11-14T00:53:52Z,42.805,6.029,13.2993,4.60013,2470.334,2021-11-14T02:55:18Z
2021-11-14T00:56:55Z,42.805,6.029,13.2988,4.60011,2470.32,2021-11-14T02:58:21Z
2021-11-14T00:59:58Z,42.805,6.029,13.2989,4.60014,2470.343,2021-11-14T03:01:24Z
2021-11-14T01:03:01Z,42.805,6.029,13.2990,4.60011,2470.343,2021-11-14T03:04:27Z
2021-11-14T01:06:04Z,42.805,6.029,13.2992,4.60014,2470.297,2021-11-14T03:07:30Z
2021-11-14T01:09:07Z,42.805,6.029,13.2992,4.60013,2470.31,2021-11-14T03:10:33Z
2021-11-14T01:12:11Z,42.805,6.029,13.2994,4.60014,2470.297,2021-11-14T03:13:36Z
2021-11-14T01:15:14Z,42.805,6.029,13.2996,4.60016,2470.343,2021-11-14T03:16:40Z
2021-11-14T01:18:17Z,42.805,6.029,13.2990,4.60016,2470.32,2021-11-14T03:19:43Z
2021-11-14T01:21:20Z,42.805,6.029,13.2993,4.60014,2470.334,2021-11-14T03:22:46Z
2021-11-14T01:24:23Z,42.805,6.029,13.2993,4.60014,2470.357,2021-11-14T03:25:49Z
2021-11-14T01:27:26Z,42.805,6.029,13.2993,4.60014,2470.343,2021-11-14T03:28:52Z
2021-11-14T01:30:29Z,42.805,6.029,13.2992,4.60017,2470.343,2021-11-14T03:31:55Z
2021-11-14T01:33:32Z,42.805,6.029,13.2993,4.60013,2470.343,2021-11-14T03:34:58Z
2021-11-14T01:36:36Z,42.805,6.029,13.2991,4.60016,2470.366,2021-11-14T03:38:01Z
2021-11-14T01:39:39Z,42.805,6.029,13.2992,4.60013,2470.343,2021-11-14T03:41:05Z
2021-11-14T01:42:42Z,42.805,6.029,13.2995,4.60014,2470.357,2021-11-14T03:44:08Z
2021-11-14T01:45:45Z,42.805,6.029,13.2993,4.60015,2470.366,2021-11-14T03:47:11Z
2021-11-14T01:48:48Z,42.805,6.029,13.2990,4.60014,2470.343,2021-11-14T03:50:14Z
2021-11-14T01:51:51Z,42.805,6.029,13.2993,4.60019,2470.357,2021-11-14T03:53:17Z
2021-11-14T01:54:54Z,42.805,6.029,13.2988,4.60011,2470.366,2021-11-14T03:56:20Z
2021-11-14T01:57:57Z,42.805,6.029,13.2993,4.60014,2470.366,2021-11-14T03:59:23Z
2021-11-14T02:01:01Z,42.805,6.029,13.2993,4.60017,2470.343,2021-11-14T04:02:26Z
2021-11-14T02:04:04Z,42.805,6.029,13.2994,4.60016,2470.343,2021-11-14T04:05:30Z
2021-11-14T02:07:07Z,42.805,6.029,13.2992,4.60017,2470.366,2021-11-14T04:08:33Z
2021-11-14T02:10:10Z,42.805,6.029,13.2994,4.60019,2470.39,2021-11-14T04:11:36Z
2021-11-14T02:13:13Z,42.805,6.029,13.2996,4.60015,2470.366,2021-11-14T04:14:39Z
2021-11-14T02:16:16Z,42.805,6.029,13.2991,4.60016,2470.366,2021-11-14T04:17:42Z
2021-11-14T02:19:19Z,42.805,6.029,13.2993,4.60018,2470.366,2021-11-14T04:20:45Z
2021-11-14T02:22:22Z,42.805,6.029,13.2991,4.60014,2470.366,2021-11-14T04:23:48Z
2021-11-14T02:25:26Z,42.805,6.029,13.2988,4.60015,2470.357,2021-11-14T04:26:51Z
2021-11-14T02:28:29Z,42.805,6.029,13.2991,4.60016,2470.39,2021-11-14T04:29:55Z
2021-11-14T02:31:32Z,42.805,6.029,13.2993,4.60014,2470.404,2021-11-14T04:32:58Z
2021-11-14T02:34:35Z,42.805,6.029,13.2993,4.60016,2470.404,2021-11-14T04:36:01Z
2021-11-14T02:37:38Z,42.805,6.029,13.2994,4.60017,2470.38,2021-11-14T04:39:04Z
2021-11-14T02:40:41Z,42.805,6.029,13.2988,4.60027,2470.343,2021-11-14T04:42:07Z
2021-11-14T02:43:44Z,42.805,6.029,13.2993,4.60017,2470.366,2021-11-14T04:45:10Z
2021-11-14T02:46:47Z,42.805,6.029,13.2991,4.60020,2470.38,2021-11-14T04:48:13Z
2021-11-14T02:49:51Z,42.805,6.029,13.2991,4.60016,2470.366,2021-11-14T04:51:16Z
2021-11-14T02:52:54Z,42.805,6.029,13.2990,4.60015,2470.39,2021-11-14T04:54:20Z
2021-11-14T02:55:57Z,42.805,6.029,13.2994,4.60016,2470.366,2021-11-14T04:57:23Z
2021-11-14T02:59:00Z,42.805,6.029,13.2992,4.60013,2470.366,2021-11-14T05:00:26Z
2021-11-14T03:02:03Z,42.805,6.029,13.2990,4.60014,2470.357,2021-11-14T05:03:29Z
2021-11-14T03:05:06Z,42.805,6.029,13.2991,4.60014,2470.38,2021-11-14T05:06:32Z
2021-11-14T03:08:09Z,42.805,6.029,13.2993,4.60014,2470.404,2021-11-14T05:09:35Z
2021-11-14T03:11:12Z,42.805,6.029,13.2994,4.60019,2470.404,2021-11-14T05:12:38Z
2021-11-14T03:14:16Z,42.805,6.029,13.2993,4.60016,2470.413,2021-11-14T05:15:41Z
2021-11-14T03:17:19Z,42.805,6.029,13.2993,4.60016,2470.366,2021-11-14T05:18:45Z
2021-11-14T03:20:22Z,42.805,6.029,13.2991,4.60018,2470.366,2021-11-14T05:21:48Z
2021-11-14T03:23:25Z,42.805,6.029,13.2996,4.60016,2470.39,2021-11-14T05:24:51Z
2021-11-14T03:26:28Z,42.805,6.029,13.2989,4.60014,2470.427,2021-11-14T05:27:54Z
2021-11-14T03:29:31Z,42.805,6.029,13.2986,4.60014,2470.38,2021-11-14T05:30:57Z
2021-11-14T03:32:34Z,42.805,6.029,13.2990,4.60014,2470.343,2021-11-14T05:34:00Z
2021-11-14T03:35:37Z,42.805,6.029,13.2993,4.60014,2470.413,2021-11-14T05:37:03Z
2021-11-14T03:38:41Z,42.805,6.029,13.2996,4.60019,2470.404,2021-11-14T05:40:06Z
2021-11-14T03:41:44Z,42.805,6.029,13.2988,4.60016,2470.404,2021-11-14T05:43:10Z
2021-11-14T03:44:47Z,42.805,6.029,13.2992,4.60019,2470.413,2021-11-14T05:46:13Z
2021-11-14T03:47:50Z,42.805,6.029,13.2991,4.60018,2470.404,2021-11-14T05:49:16Z
2021-11-14T03:50:53Z,42.805,6.029,13.2993,4.60014,2470.39,2021-11-14T05:52:19Z
2021-11-14T03:53:56Z,42.805,6.029,13.2993,4.60014,2470.427,2021-11-14T05:55:22Z
2021-11-14T03:56:59Z,42.805,6.029,13.2991,4.60015,2470.38,2021-11-14T05:58:25Z
2021-11-14T04:00:02Z,42.805,6.029,13.2991,4.60016,2470.427,2021-11-14T06:01:28Z
2021-11-14T04:03:06Z,42.805,6.029,13.2991,4.60012,2470.366,2021-11-14T06:04:31Z
2021-11-14T04:06:09Z,42.805,6.029,13.2997,4.60019,2470.38,2021-11-14T06:07:35Z
2021-11-14T04:09:12Z,42.805,6.029,13.2992,4.60014,2470.376,2021-11-14T06:10:38Z
2021-11-14T04:12:15Z,42.805,6.029,13.2991,4.60014,2470.39,2021-11-14T06:13:41Z
2021-11-14T04:15:18Z,42.805,6.029,13.2995,4.60023,2470.39,2021-11-14T06:16:44Z
2021-11-14T04:18:21Z,42.805,6.029,13.2991,4.60017,2470.39,2021-11-14T06:19:47Z
2021-11-14T04:21:24Z,42.805,6.029,13.2995,4.60019,2470.39,2021-11-14T06:22:50Z
2021-11-14T04:24:27Z,42.805,6.029,13.2992,4.60014,2470.38,2021-11-14T06:25:53Z
2021-11-14T04:27:30Z,42.805,6.029,13.2991,4.60013,2470.404,2021-11-14T06:28:56Z
2021-11-14T04:30:34Z,42.805,6.029,13.2988,4.60014,2470.404,2021-11-14T06:32:00Z
2021-11-14T04:33:37Z,42.805,6.029,13.2994,4.60014,2470.413,2021-11-14T06:35:03Z
2021-11-14T04:36:40Z,42.805,6.029,13.2992,4.60016,2470.39,2021-11-14T06:38:06Z
2021-11-14T04:39:43Z,42.805,6.029,13.2991,4.60016,2470.366,2021-11-14T06:41:09Z
2021-11-14T04:42:46Z,42.805,6.029,13.2996,4.60020,2470.413,2021-11-14T06:44:12Z
2021-11-14T04:45:49Z,42.805,6.029,13.2995,4.60026,2470.39,2021-11-14T06:47:15Z
2021-11-14T04:48:52Z,42.805,6.029,13.2991,4.60029,2470.39,2021-11-14T06:50:18Z
2021-11-14T04:51:55Z,42.805,6.029,13.2990,4.60014,2470.366,2021-11-14T06:53:21Z
2021-11-14T04:54:59Z,42.805,6.029,13.2995,4.60026,2470.39,2021-11-14T06:56:25Z
2021-11-14T04:58:02Z,42.805,6.029,13.2990,4.60015,2470.39,2021-11-14T06:59:28Z
2021-11-14T05:01:05Z,42.805,6.029,13.2996,4.60016,2470.366,2021-11-14T07:02:31Z
2021-11-14T05:04:08Z,42.805,6.029,13.2996,4.60014,2470.38,2021-11-14T07:05:34Z
2021-11-14T05:07:11Z,42.805,6.029,13.2993,4.60014,2470.404,2021-11-14T07:08:37Z
2021-11-14T05:10:14Z,42.805,6.029,13.2993,4.60016,2470.366,2021-11-14T07:11:40Z
2021-11-14T05:13:17Z,42.805,6.029,13.2997,4.60019,2470.353,2021-11-14T07:14:43Z
2021-11-14T05:16:20Z,42.805,6.029,13.2990,4.60015,2470.357,2021-11-14T07:17:46Z
2021-11-14T05:19:24Z,42.805,6.029,13.2993,4.60021,2470.39,2021-11-14T07:20:50Z
2021-11-14T05:22:27Z,42.805,6.029,13.2991,4.60017,2470.39,2021-11-14T07:23:53Z
2021-11-14T05:25:30Z,42.805,6.029,13.2991,4.60020,2470.45,2021-11-14T07:26:56Z
2021-11-14T05:28:33Z,42.805,6.029,13.2999,4.60021,2470.413,2021-11-14T07:29:59Z
2021-11-14T05:31:36Z,42.805,6.029,13.2990,4.60019,2470.39,2021-11-14T07:33:02Z
2021-11-14T05:34:39Z,42.805,6.029,13.2992,4.60020,2470.38,2021-11-14T07:36:05Z
2021-11-14T05:37:42Z,42.805,6.029,13.2992,4.60016,2470.413,2021-11-14T07:39:08Z
2021-11-14T05:40:45Z,42.805,6.029,13.2989,4.60015,2470.39,2021-11-14T07:42:11Z
2021-11-14T05:43:49Z,42.805,6.029,13.2999,4.60032,2470.33,2021-11-14T07:45:15Z
2021-11-14T05:46:52Z,42.805,6.029,13.2994,4.60028,2470.39,2021-11-14T07:48:18Z
2021-11-14T05:49:55Z,42.805,6.029,13.2998,4.60019,2470.38,2021-11-14T07:51:21Z
2021-11-14T05:52:58Z,42.805,6.029,13.2996,4.60020,2470.343,2021-11-14T07:54:24Z
2021-11-14T05:56:01Z,42.805,6.029,13.2996,4.60018,2470.366,2021-11-14T07:57:27Z
2021-11-14T05:59:04Z,42.805,6.029,13.2999,4.60019,2470.39,2021-11-14T08:00:30Z
2021-11-14T06:02:07Z,42.805,6.029,13.2994,4.60016,2470.366,2021-11-14T08:03:33Z
2021-11-14T06:05:10Z,42.805,6.029,13.2998,4.60025,2470.39,2021-11-14T08:06:36Z
2021-11-14T06:08:14Z,42.805,6.029,13.2996,4.60021,2470.376,2021-11-14T08:09:39Z
2021-11-14T06:11:17Z,42.805,6.029,13.2994,4.60019,2470.366,2021-11-14T08:12:43Z
2021-11-14T06:14:20Z,42.805,6.029,13.2991,4.60020,2470.366,2021-11-14T08:15:46Z
2021-11-14T06:17:23Z,42.805,6.029,13.2997,4.60016,2470.38,2021-11-14T08:18:49Z
2021-11-14T06:20:26Z,42.805,6.029,13.2990,4.60019,2470.38,2021-11-14T08:21:52Z
2021-11-14T06:23:29Z,42.805,6.029,13.2993,4.60029,2470.366,2021-11-14T08:24:55Z
2021-11-14T06:26:32Z,42.805,6.029,13.2994,4.60024,2470.366,2021-11-14T08:27:58Z
2021-11-14T06:29:35Z,42.805,6.029,13.2996,4.60021,2470.39,2021-11-14T08:31:01Z
2021-11-14T06:32:39Z,42.805,6.029,13.2993,4.60017,2470.357,2021-11-14T08:34:04Z
2021-11-14T06:35:42Z,42.805,6.029,13.2993,4.60017,2470.366,2021-11-14T08:37:08Z
2021-11-14T06:38:45Z,42.805,6.029,13.2999,4.60025,2470.343,2021-11-14T08:40:11Z
2021-11-14T06:41:48Z,42.805,6.029,13.2998,4.60026,2470.357,2021-11-14T08:43:14Z
2021-11-14T06:44:51Z,42.805,6.029,13.2993,4.60022,2470.343,2021-11-14T08:46:17Z
2021-11-14T06:47:54Z,42.805,6.029,13.2993,4.60019,2470.404,2021-11-14T08:49:20Z
2021-11-14T06:50:57Z,42.805,6.029,13.2995,4.60017,2470.357,2021-11-14T08:52:23Z
2021-11-14T06:54:00Z,42.805,6.029,13.2995,4.60018,2470.366,2021-11-14T08:55:26Z
2021-11-14T06:57:04Z,42.805,6.029,13.2996,4.60017,2470.366,2021-11-14T08:58:29Z
2021-11-14T07:00:07Z,42.805,6.029,13.2999,4.60019,2470.343,2021-11-14T09:01:33Z
2021-11-14T07:03:10Z,42.805,6.029,13.2993,4.60016,2470.343,2021-11-14T09:04:36Z
2021-11-14T07:06:13Z,42.805,6.029,13.2994,4.60021,2470.38,2021-11-14T09:07:39Z
2021-11-14T07:09:16Z,42.805,6.029,13.2999,4.60032,2470.343,2021-11-14T09:10:42Z
2021-11-14T07:12:19Z,42.805,6.029,13.2995,4.60016,2470.343,2021-11-14T09:13:45Z
2021-11-14T07:15:22Z,42.805,6.029,13.2993,4.60019,2470.343,2021-11-14T09:16:48Z
2021-11-14T07:18:25Z,42.805,6.029,13.2993,4.60021,2470.32,2021-11-14T09:19:51Z
2021-11-14T07:21:29Z,42.805,6.029,13.2991,4.60017,2470.32,2021-11-14T09:22:54Z
2021-11-14T07:24:32Z,42.805,6.029,13.2996,4.60033,2470.32,2021-11-14T09:25:58Z
2021-11-14T07:27:35Z,42.805,6.029,13.2995,4.60017,2470.32,2021-11-14T09:29:01Z
2021-11-14T07:30:38Z,42.805,6.029,13.2994,4.60016,2470.39,2021-11-14T09:32:04Z
2021-11-14T07:33:41Z,42.805,6.029,13.2996,4.60019,2470.334,2021-11-14T09:35:07Z
2021-11-14T07:36:44Z,42.805,6.029,13.2997,4.60016,2470.343,2021-11-14T09:38:10Z
2021-11-14T07:39:47Z,42.805,6.029,13.2991,4.60019,2470.343,2021-11-14T09:41:13Z
2021-11-14T07:42:50Z,42.805,6.029,13.2994,4.60016,2470.38,2021-11-14T09:44:16Z
2021-11-14T07:45:54Z,42.805,6.029,13.2995,4.60016,2470.343,2021-11-14T09:47:19Z
2021-11-14T07:48:57Z,42.805,6.029,13.2995,4.60020,2470.334,2021-11-14T09:50:23Z
2021-11-14T07:52:00Z,42.805,6.029,13.2994,4.60019,2470.366,2021-11-14T09:53:26Z
2021-11-14T07:55:03Z,42.805,6.029,13.2996,4.60017,2470.32,2021-11-14T09:56:29Z
2021-11-14T07:58:06Z,42.805,6.029,13.2996,4.60021,2470.357,2021-11-14T09:59:32Z
2021-11-14T08:01:09Z,42.805,6.029,13.2994,4.60022,2470.343,2021-11-14T10:02:35Z
2021-11-14T08:04:12Z,42.805,6.029,13.2990,4.60016,2470.343,2021-11-14T10:05:38Z
2021-11-14T08:07:15Z,42.805,6.029,13.2992,4.60014,2470.38,2021-11-14T10:08:41Z
2021-11-14T08:10:19Z,42.805,6.029,13.2992,4.60017,2470.31,2021-11-14T10:11:44Z
2021-11-14T08:13:22Z,42.805,6.029,13.2998,4.60024,2470.357,2021-11-14T10:14:48Z
2021-11-14T08:16:25Z,42.805,6.029,13.2992,4.60019,2470.334,2021-11-14T10:17:51Z
2021-11-14T08:19:28Z,42.805,6.029,13.2993,4.60016,2470.343,2021-11-14T10:20:54Z
2021-11-14T08:22:31Z,42.805,6.029,13.2996,4.60033,2470.357,2021-11-14T10:23:57Z
2021-11-14T08:25:34Z,42.805,6.029,13.2995,4.60024,2470.343,2021-11-14T10:27:00Z
2021-11-14T08:28:37Z,42.805,6.029,13.2993,4.60019,2470.366,2021-11-14T10:30:03Z
2021-11-14T08:31:40Z,42.805,6.029,13.2992,4.60016,2470.31,2021-11-14T10:33:06Z
2021-11-14T08:34:44Z,42.805,6.029,13.2996,4.60022,2470.357,2021-11-14T10:36:09Z
2021-11-14T08:37:47Z,42.805,6.029,13.2998,4.60021,2470.343,2021-11-14T10:39:13Z
2021-11-14T08:40:50Z,42.805,6.029,13.2997,4.60016,2470.357,2021-11-14T10:42:16Z
2021-11-14T08:43:53Z,42.805,6.029,13.2994,4.60021,2470.343,2021-11-14T10:45:19Z
2021-11-14T08:46:56Z,42.805,6.029,13.2991,4.60023,2470.366,2021-11-14T10:48:22Z
2021-11-14T08:49:59Z,42.805,6.029,13.2999,4.60023,2470.32,2021-11-14T10:51:25Z
2021-11-14T08:53:02Z,42.805,6.029,13.2996,4.60014,2470.32,2021-11-14T10:54:28Z
2021-11-14T08:56:05Z,42.805,6.029,13.2991,4.60017,2470.334,2021-11-14T10:57:31Z
2021-11-14T08:59:09Z,42.805,6.029,13.2997,4.60028,2470.357,2021-11-14T11:00:34Z
2021-11-14T09:02:12Z,42.805,6.029,13.2993,4.60020,2470.343,2021-11-14T11:03:38Z
2021-11-14T09:05:15Z,42.805,6.029,13.2994,4.60026,2470.32,2021-11-14T11:06:41Z
2021-11-14T09:08:18Z,42.805,6.029,13.2990,4.60015,2470.357,2021-11-14T11:09:44Z
2021-11-14T09:11:21Z,42.805,6.029,13.2996,4.60016,2470.32,2021-11-14T11:12:47Z
2021-11-14T09:14:24Z,42.805,6.029,13.2998,4.60019,2470.297,2021-11-14T11:15:50Z
2021-11-14T09:17:27Z,42.805,6.029,13.2992,4.60017,2470.334,2021-11-14T11:18:53Z
2021-11-14T09:20:30Z,42.805,6.029,13.2995,4.60016,2470.334,2021-11-14T11:21:56Z
2021-11-14T09:23:34Z,42.805,6.029,13.2993,4.60021,2470.32,2021-11-14T11:24:59Z
2021-11-14T09:26:37Z,42.805,6.029,13.3000,4.60044,2470.357,2021-11-14T11:28:03Z
2021-11-14T09:29:40Z,42.805,6.029,13.2997,4.60019,2470.334,2021-11-14T11:31:06Z
2021-11-14T09:32:43Z,42.805,6.029,13.2996,4.60021,2470.32,2021-11-14T11:34:09Z
2021-11-14T09:35:46Z,42.805,6.029,13.2995,4.60019,2470.343,2021-11-14T11:37:12Z
2021-11-14T09:38:49Z,42.805,6.029,13.2993,4.60019,2470.32,2021-11-14T11:40:15Z
2021-11-14T09:41:52Z,42.805,6.029,13.2995,4.60020,2470.32,2021-11-14T11:43:18Z
2021-11-14T09:44:55Z,42.805,6.029,13.2991,4.60020,2470.297,2021-11-14T11:46:21Z
2021-11-14T09:47:59Z,42.805,6.029,13.2994,4.60022,2470.366,2021-11-14T11:49:24Z
2021-11-14T09:51:02Z,42.805,6.029,13.2996,4.60021,2470.31,2021-11-14T11:52:28Z
2021-11-14T09:54:05Z,42.805,6.029,13.2996,4.60024,2470.32,2021-11-14T11:55:31Z
2021-11-14T09:57:08Z,42.805,6.029,13.2991,4.60017,2470.343,2021-11-14T11:58:34Z
2021-11-14T10:00:11Z,42.805,6.029,13.2993,4.60015,2470.297,2021-11-14T12:01:37Z
2021-11-14T10:03:14Z,42.805,6.029,13.2991,4.60014,2470.357,2021-11-14T12:04:40Z
2021-11-14T10:06:17Z,42.805,6.029,13.2989,4.60019,2470.32,2021-11-14T12:07:43Z
2021-11-14T10:09:20Z,42.805,6.029,13.2992,4.60017,2470.32,2021-11-14T12:10:46Z
2021-11-14T10:12:24Z,42.805,6.029,13.2991,4.60017,2470.297,2021-11-14T12:13:49Z
2021-11-14T10:15:27Z,42.805,6.029,13.2993,4.60019,2470.297,2021-11-14T12:16:53Z
2021-11-14T10:18:30Z,42.805,6.029,13.2997,4.60020,2470.357,2021-11-14T12:19:56Z
2021-11-14T10:21:33Z,42.805,6.029,13.2993,4.60016,2470.32,2021-11-14T12:22:59Z
2021-11-14T10:24:36Z,42.805,6.029,13.2994,4.60019,2470.32,2021-11-14T12:26:02Z
2021-11-14T10:27:39Z,42.805,6.029,13.2992,4.60019,2470.32,2021-11-14T12:29:05Z
2021-11-14T10:30:42Z,42.805,6.029,13.2997,4.60019,2470.334,2021-11-14T12:32:08Z
2021-11-14T10:33:45Z,42.805,6.029,13.2994,4.60021,2470.343,2021-11-14T12:35:11Z
2021-11-14T10:36:49Z,42.805,6.029,13.2990,4.60016,2470.343,2021-11-14T12:38:15Z
2021-11-14T10:39:52Z,42.805,6.029,13.2991,4.60021,2470.334,2021-11-14T12:41:18Z
2021-11-14T10:42:55Z,42.805,6.029,13.2993,4.60017,2470.334,2021-11-14T12:44:21Z
2021-11-14T10:45:58Z,42.805,6.029,13.2991,4.60016,2470.32,2021-11-14T12:47:24Z
2021-11-14T10:49:01Z,42.805,6.029,13.2996,4.60015,2470.32,2021-11-14T12:50:27Z
2021-11-14T10:52:04Z,42.805,6.029,13.2994,4.60014,2470.297,2021-11-14T12:53:30Z
2021-11-14T10:55:07Z,42.805,6.029,13.2990,4.60014,2470.343,2021-11-14T12:56:33Z
2021-11-14T10:58:11Z,42.805,6.029,13.2990,4.60013,2470.297,2021-11-14T12:59:36Z
2021-11-14T11:01:14Z,42.805,6.029,13.2993,4.60014,2470.334,2021-11-14T13:02:40Z
2021-11-14T11:04:17Z,42.805,6.029,13.2993,4.60024,2470.32,2021-11-14T13:05:43Z
2021-11-14T11:07:20Z,42.805,6.029,13.2993,4.60017,2470.343,2021-11-14T13:08:46Z
2021-11-14T11:10:23Z,42.805,6.029,13.2991,4.60013,2470.32,2021-11-14T13:11:49Z
2021-11-14T11:13:26Z,42.805,6.029,13.2990,4.60017,2470.357,2021-11-14T13:14:52Z
2021-11-14T11:16:29Z,42.805,6.029,13.2991,4.60016,2470.357,2021-11-14T13:17:55Z
2021-11-14T11:19:32Z,42.805,6.029,13.2995,4.60026,2470.297,2021-11-14T13:20:58Z
2021-11-14T11:22:36Z,42.805,6.029,13.2996,4.60031,2470.357,2021-11-14T13:24:01Z
2021-11-14T11:25:39Z,42.805,6.029,13.2993,4.60016,2470.32,2021-11-14T13:27:05Z
2021-11-14T11:28:42Z,42.805,6.029,13.2996,4.60016,2470.334,2021-11-14T13:30:08Z
2021-11-14T11:31:45Z,42.805,6.029,13.2993,4.60016,2470.38,2021-11-14T13:33:11Z
2021-11-14T11:34:48Z,42.805,6.029,13.2991,4.60015,2470.343,2021-11-14T13:36:14Z
2021-11-14T11:37:51Z,42.805,6.029,13.2994,4.60016,2470.32,2021-11-14T13:39:17Z
2021-11-14T11:40:54Z,42.805,6.029,13.2991,4.60026,2470.306,2021-11-14T13:42:20Z
2021-11-14T11:43:57Z,42.805,6.029,13.2993,4.60017,2470.343,2021-11-14T13:45:23Z
2021-11-14T11:47:01Z,42.805,6.029,13.2991,4.60016,2470.38,2021-11-14T13:48:26Z
2021-11-14T11:50:04Z,42.805,6.029,13.2999,4.60031,2470.343,2021-11-14T13:51:30Z
2021-11-14T11:53:07Z,42.805,6.029,13.2998,4.60019,2470.334,2021-11-14T13:54:33Z
2021-11-14T11:56:10Z,42.805,6.029,13.2991,4.60016,2470.366,2021-11-14T13:57:36Z
2021-11-14T11:59:13Z,42.805,6.029,13.2989,4.60016,2470.32,2021-11-14T14:00:39Z
2021-11-14T12:02:16Z,42.805,6.029,13.2992,4.60021,2470.343,2021-11-14T14:03:42Z
2021-11-14T12:05:19Z,42.805,6.029,13.2996,4.60029,2470.366,2021-11-14T14:06:45Z
2021-11-14T12:08:22Z,42.805,6.029,13.2991,4.60017,2470.38,2021-11-14T14:09:48Z
2021-11-14T12:11:26Z,42.805,6.029,13.2991,4.60019,2470.343,2021-11-14T14:12:51Z
2021-11-14T12:14:29Z,42.805,6.029,13.2993,4.60019,2470.357,2021-11-14T14:15:55Z
2021-11-14T12:17:32Z,42.805,6.029,13.2996,4.60021,2470.357,2021-11-14T14:18:58Z
2021-11-14T12:20:35Z,42.805,6.029,13.3000,4.60026,2470.38,2021-11-14T14:22:01Z
2021-11-14T12:23:38Z,42.805,6.029,13.3000,4.60019,2470.343,2021-11-14T14:25:04Z
2021-11-14T12:26:41Z,42.805,6.029,13.2992,4.60019,2470.357,2021-11-14T14:28:07Z
2021-11-14T12:29:44Z,42.805,6.029,13.2993,4.60019,2470.404,2021-11-14T14:31:10Z
2021-11-14T12:32:47Z,42.805,6.029,13.2995,4.60024,2470.366,2021-11-14T14:34:13Z
2021-11-14T12:35:51Z,42.805,6.029,13.2992,4.60016,2470.343,2021-11-14T14:37:17Z
2021-11-14T12:38:54Z,42.805,6.029,13.2992,4.60022,2470.39,2021-11-14T14:40:20Z
2021-11-14T12:41:57Z,42.805,6.029,13.2997,4.60026,2470.366,2021-11-14T14:43:23Z
2021-11-14T12:45:00Z,42.805,6.029,13.2994,4.60026,2470.38,2021-11-14T14:46:26Z
2021-11-14T12:48:03Z,42.805,6.029,13.2993,4.60026,2470.357,2021-11-14T14:49:29Z
2021-11-14T12:51:06Z,42.805,6.029,13.2995,4.60018,2470.404,2021-11-14T14:52:32Z
2021-11-14T12:54:09Z,42.805,6.029,13.2991,4.60021,2470.366,2021-11-14T14:55:35Z
2021-11-14T12:57:12Z,42.805,6.029,13.2992,4.60018,2470.38,2021-11-14T14:58:38Z
2021-11-14T13:00:16Z,42.805,6.029,13.2993,4.60033,2470.38,2021-11-14T15:01:42Z
2021-11-14T13:03:19Z,42.805,6.029,13.2996,4.60039,2470.357,2021-11-14T15:04:45Z
2021-11-14T13:06:22Z,42.805,6.029,13.2995,4.60021,2470.366,2021-11-14T15:07:48Z
2021-11-14T13:09:25Z,42.805,6.029,13.2999,4.60031,2470.39,2021-11-14T15:10:51Z
2021-11-14T13:12:28Z,42.805,6.029,13.2996,4.60024,2470.366,2021-11-14T15:13:54Z
2021-11-14T13:15:31Z,42.805,6.029,13.2994,4.60031,2470.413,2021-11-14T15:16:57Z
2021-11-14T13:18:34Z,42.805,6.029,13.2999,4.60024,2470.39,2021-11-14T15:20:00Z
2021-11-14T13:21:38Z,42.805,6.029,13.2996,4.60019,2470.39,2021-11-14T15:23:03Z
2021-11-14T13:24:41Z,42.805,6.029,13.2994,4.60030,2470.427,2021-11-14T15:26:07Z
2021-11-14T13:27:44Z,42.805,6.029,13.2996,4.60039,2470.404,2021-11-14T15:29:10Z
2021-11-14T13:30:47Z,42.805,6.029,13.2996,4.60024,2470.413,2021-11-14T15:32:13Z
2021-11-14T13:33:50Z,42.805,6.029,13.2991,4.60019,2470.39,2021-11-14T15:35:16Z
2021-11-14T13:36:53Z,42.805,6.029,13.2989,4.60016,2470.39,2021-11-14T15:38:19Z
2021-11-14T13:39:56Z,42.805,6.029,13.2998,4.60033,2470.427,2021-11-14T15:41:22Z
2021-11-14T13:42:59Z,42.805,6.029,13.2997,4.60021,2470.437,2021-11-14T15:44:25Z
2021-11-14T13:46:03Z,42.805,6.029,13.2998,4.60024,2470.39,2021-11-14T15:47:28Z
2021-11-14T13:49:06Z,42.805,6.029,13.2993,4.60021,2470.39,2021-11-14T15:50:32Z
2021-11-14T13:52:09Z,42.805,6.029,13.2991,4.60018,2470.404,2021-11-14T15:53:35Z
2021-11-14T13:55:12Z,42.805,6.029,13.2998,4.60029,2470.39,2021-11-14T15:56:38Z
2021-11-14T13:58:15Z,42.805,6.029,13.2992,4.60025,2470.413,2021-11-14T15:59:41Z
2021-11-14T14:01:18Z,42.805,6.029,13.2996,4.60031,2470.413,2021-11-14T16:02:44Z
2021-11-14T14:04:21Z,42.805,6.029,13.2996,4.60023,2470.413,2021-11-14T16:05:47Z
2021-11-14T14:07:24Z,42.805,6.029,13.2990,4.60020,2470.413,2021-11-14T16:08:50Z
2021-11-14T14:10:28Z,42.805,6.029,13.2994,4.60043,2470.413,2021-11-14T16:11:53Z
2021-11-14T14:13:31Z,42.805,6.029,13.2994,4.60025,2470.437,2021-11-14T16:14:57Z
2021-11-14T14:16:34Z,42.805,6.029,13.2993,4.60022,2470.427,2021-11-14T16:18:00Z
2021-11-14T14:19:37Z,42.805,6.029,13.2994,4.60016,2470.39,2021-11-14T16:21:03Z
2021-11-14T14:22:40Z,42.805,6.029,13.2996,4.60019,2470.46,2021-11-14T16:24:06Z
2021-11-14T14:25:43Z,42.805,6.029,13.2998,4.60025,2470.45,2021-11-14T16:27:09Z
2021-11-14T14:28:46Z,42.805,6.029,13.2993,4.60026,2470.413,2021-11-14T16:30:12Z
2021-11-14T14:31:49Z,42.805,6.029,13.2997,4.60019,2470.427,2021-11-14T16:33:15Z
2021-11-14T14:34:53Z,42.805,6.029,13.2995,4.60023,2470.45,2021-11-14T16:36:18Z
2021-11-14T14:37:56Z,42.805,6.029,13.2996,4.60021,2470.437,2021-11-14T16:39:22Z
2021-11-14T14:40:59Z,42.805,6.029,13.2996,4.60023,2470.483,2021-11-14T16:42:25Z
2021-11-14T14:44:02Z,42.805,6.029,13.2994,4.60024,2470.437,2021-11-14T16:45:28Z
2021-11-14T14:47:05Z,42.805,6.029,13.3000,4.60023,2470.45,2021-11-14T16:48:31Z
2021-11-14T14:50:08Z,42.805,6.029,13.2994,4.60019,2470.474,2021-11-14T16:51:34Z
2021-11-14T14:53:11Z,42.805,6.029,13.2993,4.60022,2470.45,2021-11-14T16:54:37Z
2021-11-14T14:56:14Z,42.805,6.029,13.2991,4.60020,2470.46,2021-11-14T16:57:40Z
2021-11-14T14:59:18Z,42.805,6.029,13.2993,4.60017,2470.437,2021-11-14T17:00:44Z
2021-11-14T15:02:21Z,42.805,6.029,13.2995,4.60017,2470.45,2021-11-14T17:03:47Z